TimeEDT,TemperatureF,Dew PointF,Humidity,Sea Level PressureIn,VisibilityMPH,Wind Direction,Wind SpeedMPH,Gust SpeedMPH,PrecipitationIn,Events,Conditions,WindDirDegrees,DateUTC
12:54 AM,44.1,32.0,63,30.09,10.0,Calm,Calm,-,N/A,,Overcast,0,2014-04-02 04:54:00
1:54 AM,45.0,28.9,53,30.08,10.0,NNW,8.1,-,N/A,,Overcast,340,2014-04-02 05:54:00
2:54 AM,44.1,30.0,58,30.07,10.0,NNE,3.5,-,N/A,,Overcast,20,2014-04-02 06:54:00
3:54 AM,44.1,30.0,58,30.11,10.0,Calm,Calm,-,0.00,Rain,Light Rain,0,2014-04-02 07:54:00
4:54 AM,42.1,33.1,70,30.11,10.0,Calm,Calm,-,0.00,,Overcast,0,2014-04-02 08:54:00
5:54 AM,42.1,32.0,67,30.11,10.0,Calm,Calm,-,N/A,,Overcast,0,2014-04-02 09:54:00
6:54 AM,42.1,34.0,73,30.12,10.0,South,3.5,-,N/A,,Overcast,190,2014-04-02 10:54:00
8:54 AM,43.0,36.0,76,30.14,10.0,Calm,Calm,-,N/A,,Overcast,0,2014-04-02 12:54:00
9:54 AM,44.1,35.1,71,30.14,10.0,NNE,3.5,-,N/A,,Overcast,30,2014-04-02 13:54:00
10:54 AM,46.9,34.0,61,30.13,10.0,ENE,9.2,-,N/A,,Overcast,60,2014-04-02 14:54:00
11:54 AM,48.9,30.9,50,30.15,10.0,East,5.8,-,N/A,,Overcast,100,2014-04-02 15:54:00
12:54 PM,52.0,33.1,49,30.11,10.0,ENE,9.2,-,N/A,,Overcast,70,2014-04-02 16:54:00
1:54 PM,53.1,36.0,52,30.12,10.0,East,6.9,-,N/A,,Mostly Cloudy,90,2014-04-02 17:54:00
2:54 PM,53.1,36.0,52,30.09,10.0,East,8.1,-,N/A,,Partly Cloudy,90,2014-04-02 18:54:00
3:54 PM,54.0,37.9,55,30.08,10.0,East,8.1,-,N/A,,Overcast,100,2014-04-02 19:54:00
4:54 PM,52.0,41.0,66,30.02,10.0,ESE,15.0,-,N/A,,Overcast,110,2014-04-02 20:54:00
5:54 PM,53.1,42.1,66,30.03,10.0,East,13.8,-,0.00,,Overcast,80,2014-04-02 21:54:00
6:27 PM,52.0,43.0,71,30.03,10.0,East,16.1,-,0.00,Rain,Light Rain,80,2014-04-02 22:27:00
6:50 PM,53.6,44.6,72,30.02,10.0,East,13.8,-,0.00,,Overcast,80,2014-04-02 22:50:00
6:54 PM,53.1,43.0,69,30.03,10.0,ENE,15.0,-,0.00,,Overcast,70,2014-04-02 22:54:00
7:10 PM,53.1,43.0,69,30.02,10.0,East,13.8,-,N/A,,Overcast,80,2014-04-02 23:10:00
7:45 PM,53.1,43.0,69,30.02,10.0,East,10.4,-,N/A,,Overcast,100,2014-04-02 23:45:00
7:54 PM,53.1,43.0,69,30.02,10.0,East,11.5,-,N/A,,Overcast,90,2014-04-02 23:54:00
8:03 PM,53.1,43.0,69,30.02,10.0,East,9.2,-,N/A,,Overcast,100,2014-04-03 00:03:00
8:45 PM,52.0,44.1,74,30.02,10.0,East,11.5,-,N/A,,Overcast,80,2014-04-03 00:45:00
8:54 PM,52.0,44.1,74,30.02,10.0,East,10.4,-,N/A,,Overcast,80,2014-04-03 00:54:00
9:07 PM,52.0,44.1,74,30.02,10.0,East,11.5,-,N/A,,Overcast,80,2014-04-03 01:07:00
9:54 PM,52.0,44.1,74,30.02,10.0,ENE,12.7,-,N/A,,Overcast,70,2014-04-03 01:54:00
10:54 PM,52.0,44.1,74,30.01,10.0,East,13.8,-,N/A,,Overcast,80,2014-04-03 02:54:00
11:33 PM,52.0,43.0,71,30.01,10.0,ENE,10.4,-,N/A,,Overcast,70,2014-04-03 03:33:00